Regional Weather Roundup
Issued by NWS

Home | Current Version | Previous Version | Text Only | Print | Product List | Glossary Off
Versions: 1 2 3 4 5 6 7 8 9 10 11 12 13 14 15 16 17 18 19 20 21 22 23 24 25 26 27 28 29 30 31 32 33 34 35 36 37 38 39 40 41 42 43 44 45 46 47 48 49 50

000
ASUS43 KMPX 281210
RWRMN
WEATHER ROUNDUP FOR MINNESOTA
NATIONAL WEATHER SERVICE TWIN CITIES/CHANHASSEN MN
600 AM CST SAT FEB 28 2015


NOTE: "FAIR" INDICATES FEW OR NO CLOUDS BELOW 12,000 FEET WITH NO
SIGNIFICANT WEATHER AND/OR OBSTRUCTIONS TO VISIBILITY. N/A MEANS
CURRENT SKY AND/OR WEATHER CONDITIONS ARE NOT AVAILABLE.

MNZ060>063-068>070-281300-
   Twin Cities Metro

CITY           SKY/WX    TMP DP  RH WIND       PRES   REMARKS
TWIN CITIES    CLEAR     -2  -7  79 SE7       30.52F WCI -15
6HR MIN TEMP:  -2; 6HR MAX TEMP:   5;

ST PAUL        CLEAR     -1  -6  79 SE7       30.56S WCI -14
CRYSTAL        CLEAR      2  -4  76 S8        30.50S WCI -12
BLAINE         CLEAR      1  -2  85 SE6       30.50S WCI -10
LAKEVILLE      PTCLDY    -8  -9  92 S5        30.52S WCI -19
EDEN PRAIRIE   CLEAR     -1  -6  79 S8        30.50S WCI -15
6HR MIN TEMP:  -2; 6HR MAX TEMP:   2;

SOUTH ST PAUL  CLEAR     -2  -6  80 CALM      30.54R
LAKE ELMO      FAIR      -2  -6  84 S6        30.54R WCI -14
$$
MNZ001>005-007-008-013>017-022>024-027-028-281300-
   Northwest Minnesota

CITY           SKY/WX    TMP DP  RH WIND       PRES   REMARKS
BEMIDJI        PTCLDY    -1  -5  82 S7        30.28F WCI -15
HALLOCK        MOCLDY     0  -6  78 S14       30.22S WCI -19
ROSEAU         PTCLDY     1  -6  71 S10       30.22F WCI -14
WARROAD        PTCLDY     1  -4  78 CALM      30.23F
THIEF RVR FALL PTCLDY     0  -2  92 S9        30.24S WCI -16
CROOKSTON      PTCLDY     7   1  78 S15       30.26F WCI -11
FOSSTON        PTCLDY     1  -6  71 S10       30.26S WCI -14
DETROIT LAKES  CLEAR      1  -2  85 S9        30.29S WCI -14
MOORHEAD       FAIR       7   1  78 S15       30.29F WCI -11
PARK RAPIDS    PTCLDY    -2  -5  87 S7        30.30S WCI -15
MAHNOMEN       FAIR       6  -2  70 S12G18    30.26S WCI -10
$$
MNZ006-009>011-018-025>026-281300-
   North Central Minnesota

CITY           SKY/WX    TMP DP  RH WIND       PRES   REMARKS
BAUDETTE       MOCLDY    -3  -8  79 S6        30.25F WCI -15
FLAG ISLAND    MOCLDY    -6 -11  77 S7        30.24S WCI -20
INTL FALLS     PTCLDY    -1  -8  72 CALM      30.30F
6HR MIN TEMP: -14; 6HR MAX TEMP:   0;

WASKISH        MOCLDY     3  -2  78 S3        30.28S
BIG FORK       PTCLDY    -2  -8  78 S5        30.32S WCI -12
LONGVILLE      PTCLDY    -6  -9  84 SE6       30.35R WCI -18
GRAND RAPIDS   PTCLDY    -2  -8  78 S7        30.33S WCI -16
CRANE LAKE     FAIR     -17 -22  76 CALM      30.37S
ORR            PTCLDY    -2  -9  71 CALM      30.31S
COOK           PTCLDY     1  -4  78 S7        30.34S WCI -11
WALKER         FAIR       1  -4  78 S7        30.31S WCI -11
$$
MNZ012-019>021-037-281300-
   Northeast Minnesota

CITY           SKY/WX    TMP DP  RH WIND       PRES   REMARKS
DULUTH         PTCLDY    -1  -6  79 SW7       30.38F WCI -14
6HR MIN TEMP:  -1; 6HR MAX TEMP:   6;

ELY            PTCLDY   N/A N/A N/A S2        30.35S
HIBBING        MOCLDY   -20 -27  70 CALM      30.37R
EVELETH        PTCLDY   -17 -24  70 CALM      30.38R
DULUTH HARBOR  PTCLDY     0  -6  78 CALM      30.49S
TWO HARBORS    PTCLDY    -6 -11  77 SW5       30.40S WCI -17
SILVER BAY     CLEAR    -13 -20  70 CALM      30.40S
GRAND MARAIS     N/A     -3 -10  72 CALM      30.45R
G MARAIS ARPRT PTCLDY     0 -11  60 SW3       30.32S
$$
MNZ029>031-032-039>041-046>048-054>057-064-281300-
   West Central Minnesota

CITY           SKY/WX    TMP DP  RH WIND       PRES   REMARKS
FERGUS FALLS   PTCLDY     3  -4  72 S14       30.35F WCI -15
WHEATON        MOCLDY     1  -4  78 SE12      30.33F WCI -15
MORRIS         PTCLDY     0  -6  78 SE13      30.34F WCI -18
ALEXANDRIA     PTCLDY     2  -4  76 S10       30.35R WCI -14
ELBOW LAKE     FAIR       0  -4  80 SE13      30.32S WCI -18
WADENA         PTCLDY    -2  -8  78 S5        30.32F WCI -12
APPLETON       PTCLDY     1  -2  85 S8        30.37S WCI -12
BENSON         PTCLDY     0  -6  78 S8        30.38R WCI -15
ORTONVILLE       N/A      0  -6  78 SE8       30.33S WCI -15
MADISON        PTCLDY     3  -2  78 S6        30.37S WCI  -8
WILLMAR        FAIR      -2  -9  71 SE9       30.41S WCI -18
$$
MNZ033>034-036-042>043-049>051-058-059-281300-
   Central Minnesota

CITY           SKY/WX    TMP DP  RH WIND       PRES   REMARKS
ST CLOUD       FAIR      -3  -7  82 S7        30.45R WCI -16
6HR MIN TEMP:  -4; 6HR MAX TEMP:   3;

SAUK CENTRE    FAIR      -1  -5  82 S10       30.38S WCI -18
PAYNESVILLE    CLEAR     -3  -7  82 E7        30.42S WCI -16
AITKIN         PTCLDY     1  -6  71 S7        30.38S WCI -11
PINE RIVER     PTCLDY    -6  -9  84 SE5       30.38S WCI -17
BRAINERD       PTCLDY    -2  -6  83 S7        30.39S WCI -15
STAPLES        PTCLDY     0  -6  78 SE7       30.35S WCI -13
LONG PRAIRIE   FAIR       0  -6  78 SE9       30.37F WCI -16
LITTLE FALLS   PTCLDY     0  -6  78 SE3       30.41F
LITCHFIELD     CLEAR     -2  -8  78 CALM      30.44S
BUFFALO        CLEAR      0  -4  85 S6        30.49R WCI -12
MAPLE LAKE     CLEAR      0  -4  85 S6        30.48R WCI -12
$$
MNZ037-044-045-052-053-281300-
   East Central Minnesota

CITY           SKY/WX    TMP DP  RH WIND       PRES   REMARKS
PRINCETON      PTCLDY    -2  -6  84 CALM      30.46S
MORA           MOCLDY    -9 -15  77 CALM      30.48S
RUSH CITY      PTCLDY    -3  -7  84 S3        30.49S
MOOSE LAKE     MOCLDY    -8 -13  77 CALM      30.43S
HINCKLEY       FAIR      -8 -11  84 CALM      30.48R
CLOQUET        PTCLDY    -4  -8  84 S6        30.41S WCI -16
MCGREGOR       PTCLDY    -2  -6  84 S3        30.41S
$$
MNZ071>073-080-081-089-090-097-098-281300-
   Southwest Minnesota

CITY           SKY/WX    TMP DP  RH WIND       PRES   REMARKS
MONTEVIDEO     PTCLDY     0  -4  85 S8        30.40S WCI -15
GRANITE FALLS  PTCLDY    -2  -6  81 SE9       30.42F WCI -17
CANBY          CLEAR      8  -1  68 S12G21    30.36F WCI  -8
MARSHALL       PTCLDY     3  -2  78 SW17      30.39S WCI -17
REDWOOD FALLS  PTCLDY    -7 -11  83 SE7       30.45S WCI -21
OLIVIA         PTCLDY    -4  -8  84 S8        30.43S WCI -19
PIPESTONE      PTCLDY    -2  -8  78 S7        30.35S WCI -16
WINDOM         PTCLDY     0  -6  78 S8        30.42S WCI -15
WORTHINGTON    PTCLDY    21 -13  21 S10       30.41F WCI  10
JACKSON        PTCLDY     0  -6  78 S10       30.44S WCI -17
TRACY          PTCLDY     4  -3  73 S13       30.39S WCI -13
SLAYTON        PTCLDY     2  -5  72 S12       30.38S WCI -15
$$
MNZ065>067-074>077-082>085-091>093-281300-
   South Central Minnesota

CITY           SKY/WX    TMP DP  RH WIND       PRES   REMARKS
MANKATO        FAIR      -6 -15  65 S8        30.49S WCI -21
NEW ULM        PTCLDY    -6  -9  84 S10       30.48R WCI -23
ST JAMES       PTCLDY    -2  -8  78 S7        30.49R WCI -16
FAIRMONT       PTCLDY    -6  -9  84 S9        30.46S WCI -22
GLENCOE        PTCLDY    -1  -4  86 S6        30.48R WCI -13
FARIBAULT      PTCLDY    -6  -9  84 S5        30.52S WCI -17
OWATONNA       PTCLDY    -2  -9  71 SE14      30.51R WCI -21
WASECA         PTCLDY    -4  -8  84 SE5       30.52S WCI -15
ALBERT LEA     PTCLDY    -8 -11  84 S5        30.51S WCI -19
$$
MNZ078>079-086>088-094>096-281300-
   Southeast Minnesota

CITY           SKY/WX    TMP DP  RH WIND       PRES   REMARKS
ROCHESTER      PTCLDY   -14 -19  79 S10       30.52R WCI -34
6HR MIN TEMP: -15; 6HR MAX TEMP:  -8;

RED WING       PTCLDY    -6 -11  77 SE5       30.56S WCI -17
STANTON        PTCLDY    -1  -7  77 S8        30.52S WCI -16
DODGE CENTER   PTCLDY    -9 -13  84 S7        30.50R WCI -24
WINONA         PTCLDY    -8 -13  77 CALM      30.63S
AUSTIN         PTCLDY   -11 -17  77 CALM      30.53R
PRESTON        PTCLDY   -12 -16  80 S8        30.54R WCI -28
$$
ABBREVIATIONS USED IN REMARKS
   TC - TEMPERATURES IN CELSIUS
  WCI - WIND CHILL INDEX
   HX - HEAT INDEX
  VSB - VISIBILITY
$$


USA.gov is the U.S. government's official web portal to all federal, state and local government web resources and services.